Regional Weather Roundup
Issued by NWS

Home | Current Version | Previous Version | Text Only | Print | Product List | Glossary On
Versions: 1 2 3 4 5 6 7 8 9 10 11 12 13 14 15 16 17 18 19 20 21 22 23 24 25 26 27 28 29 30 31 32 33 34 35 36 37 38 39 40 41 42 43 44 45 46 47 48 49 50
000
ASUS46 KPQR 260210
RWROR

OREGON REGIONAL WEATHER ROUNDUP
NATIONAL WEATHER SERVICE PORTLAND OR
700 PM PDT FRI JUL 25 2014

NOTE: "FAIR" INDICATES FEW OR NO CLOUDS BELOW 12,000 FEET WITH
NO SIGNIFICANT WEATHER AND/OR OBSTRUCTIONS TO VISIBILITY.

ORZ001>013-260300-
NORTHWEST OREGON


CITY           SKY/WX    TMP DP  RH WIND       PRES   REMARKS
ASTORIA        SUNNY     65  52  62 NW15      30.11S
NEWPORT        SUNNY     63  55  77 N12G20    30.13S
PORTLAND       MOSUNNY   77  52  41 N7        30.04F
VANCOUVER WA   SUNNY     76  50  40 VRB7      30.04F
SCAPPOOSE      SUNNY     76  53  44 N13       30.04F
HILLSBORO      SUNNY     76  53  44 NE10      30.04S
AURORA         SUNNY     77  54  44 VRB7      30.05S
MCMINNVILLE    SUNNY     79  54  41 CALM      30.04S
SALEM          SUNNY     80  50  34 N9        30.02F
CORVALLIS      SUNNY     77  55  47 NW12      30.05R
EUGENE         MOSUNNY   80  51  36 NE10      30.03S
$$

ORZ021-028-260300-
SOUTHWEST OREGON


CITY           SKY/WX    TMP DP  RH WIND       PRES   REMARKS
NORTH BEND     SUNNY     63  57  82 N23G30    30.08S
BROOKINGS      CLEAR     75  55  49 NW8       29.94S
ROSEBURG       SUNNY     84  47  27 N14       29.99S
SEXTON SUMMIT  SUNNY     69  40  34 N8G20     30.10F
MEDFORD        SUNNY     89  39  17 N17       29.95R
$$

ORZ009-041-260300-
COLUMBIA GORGE


CITY           SKY/WX    TMP DP  RH WIND       PRES   REMARKS
TROUTDALE      SUNNY     78  48  34 CALM      30.02F
THE DALLES     SUNNY     82  48  30 W13       29.96S
$$

ORZ029>031-042>050-061>064-260300-
EASTERN OREGON


CITY           SKY/WX    TMP DP  RH WIND       PRES   REMARKS
REDMOND        SUNNY     80  36  20 N13       30.04S
BEND           CLEAR     77  37  24 N7        30.07S
KLAMATH FALLS  SUNNY     82  35  18 N16       30.05S
LAKEVIEW       SUNNY     84  27  12 W10       30.08R
HERMISTON      SUNNY     83  35  18 E3        29.97F
PENDLETON      SUNNY     81  35  19 W9        30.00S
JOHN DAY       CLEAR     81  32  17 NW9       30.05R
MEACHAM        SUNNY     70  36  28 CALM      30.11S
LA GRANDE      SUNNY     79  41  25 NW8       30.03S
BAKER CITY     SUNNY     76  41  28 NW15G22   30.05R
BURNS          SUNNY     82  17   9 S8        30.05S
ROME             N/A     87  28  12 N13       30.00S
ONTARIO        SUNNY     84  41  21 S5        29.96S
$$



USA.gov is the U.S. government's official web portal to all federal, state and local government web resources and services.